GFSNE_250_spd_015.txt.gz
Wind_Speed
98 97 97 99 98 95 92 91 92 91 91 95 96 90 85 87 93 93 98 104 113 117 121 125 130 129 125 121 117 114 111 109 114 118 117 115 114 110
98 95 92 89 86 85 85 85 85 88 86 90 93 92 86 82 85 89 92 97 105 114 119 123 128 133 133 131 127 123 119 115 113 116 118 121 120 119
91 85 82 79 77 76 76 77 76 78 78 81 84 89 87 83 84 85 89 92 97 106 115 120 124 129 135 134 134 132 128 125 120 118 117 117 121 123
81 77 73 70 68 67 67 69 69 69 70 71 75 79 82 84 85 84 87 90 92 99 106 114 122 127 130 135 137 137 135 131 127 124 123 118 119 118
73 70 67 63 62 61 61 61 63 63 64 65 70 73 76 81 83 82 84 88 90 95 103 111 115 118 124 129 132 134 137 137 133 131 128 126 124 122
68 65 62 59 58 57 57 57 57 57 58 60 65 68 71 75 78 80 82 84 86 88 90 98 105 108 112 115 123 129 130 134 137 137 135 132 129 127
62 59 57 56 54 53 54 55 54 52 51 54 62 65 65 69 72 75 78 81 82 83 82 85 91 97 102 105 108 112 120 126 131 137 139 138 135 132
57 54 51 49 49 47 49 51 51 50 48 49 56 60 61 62 64 68 73 76 80 80 80 80 81 86 91 93 97 101 109 116 124 130 134 139 140 138
51 46 43 42 42 42 43 43 44 44 45 46 51 53 54 57 58 64 70 71 75 79 79 79 78 81 86 87 87 90 99 105 111 118 126 131 135 139
44 41 39 40 40 40 40 39 38 38 38 43 49 52 51 50 52 56 60 63 68 72 75 77 79 80 81 84 87 88 89 96 104 108 113 118 126 131
39 38 38 38 38 36 35 33 32 32 36 38 42 46 47 48 50 54 57 56 61 64 66 67 73 76 77 79 83 88 90 94 98 102 106 109 114 120
36 37 37 35 34 34 33 31 31 32 33 33 36 38 40 40 44 49 50 54 56 60 63 62 66 67 69 73 76 79 82 87 94 99 103 105 108 109
34 36 37 32 32 31 30 29 28 29 30 31 33 35 37 38 39 42 44 47 51 56 57 56 61 65 67 70 71 75 78 83 87 89 96 102 104 104
33 33 34 30 30 30 28 27 27 27 28 30 32 34 36 38 39 40 41 44 50 54 53 55 59 61 63 65 67 71 74 78 83 86 89 94 98 99
29 29 29 26 26 26 26 26 25 27 28 29 30 31 32 33 35 36 38 41 44 47 49 51 55 58 61 64 65 68 72 75 79 83 87 91 94 97
26 25 24 23 22 22 23 23 24 25 25 26 26 26 28 31 33 33 35 37 40 43 45 47 50 51 53 57 62 66 70 74 78 80 82 85 89 93
22 22 21 20 19 20 21 21 23 23 23 23 23 25 27 28 29 30 31 31 33 36 39 42 43 45 47 49 54 58 64 71 76 79 80 81 83 88
22 21 19 18 17 18 19 20 21 22 22 22 22 24 25 25 26 26 27 28 30 30 32 38 39 40 40 42 48 54 58 64 70 74 78 79 80 82
21 21 21 19 18 18 19 20 21 21 22 23 23 23 24 24 24 25 24 26 28 28 27 31 36 37 37 38 40 47 55 60 64 68 73 77 78 79
18 19 20 20 21 20 20 21 23 23 23 23 22 22 23 24 24 24 25 26 26 27 26 26 30 34 35 36 37 43 49 55 59 62 67 72 74 77
18 18 19 20 21 22 22 23 23 23 25 24 22 22 23 24 24 24 24 24 24 25 27 26 26 29 31 33 36 40 46 51 55 59 61 65 71 73
18 18 18 19 20 22 23 23 23 24 25 24 23 23 23 23 23 24 24 24 23 24 26 27 27 28 30 31 34 37 40 47 51 55 58 61 65 68
19 19 19 20 20 22 23 23 23 24 25 25 24 24 24 24 23 22 23 23 22 23 24 27 28 29 30 29 31 34 38 42 47 51 55 58 61 63

GFSNE_250_spd_018.txt.gz
Wind_Speed
105 102 100 99 95 93 91 87 85 82 82 86 86 87 87 86 91 86 90 97 99 103 112 118 123 125 127 125 123 121 118 117 114 117 116 114 110 108
101 99 95 90 86 81 78 74 73 73 71 74 76 82 86 88 88 86 84 88 96 103 109 114 121 127 128 129 129 127 126 124 119 116 119 119 116 115
94 87 83 79 75 73 70 68 66 66 65 68 69 72 78 83 87 83 82 84 91 99 106 107 114 122 127 131 133 133 132 130 129 123 119 123 122 121
82 80 76 72 69 66 63 62 62 60 60 64 66 67 72 76 77 80 77 79 85 89 97 102 107 114 123 130 135 137 137 136 133 133 128 121 123 126
77 74 71 66 63 61 58 56 55 56 55 57 62 63 68 70 70 71 72 78 83 90 96 96 100 106 117 127 134 138 137 137 137 134 133 130 126 126
71 68 65 62 58 57 54 52 51 51 51 53 57 58 61 63 64 65 67 70 78 88 95 96 95 102 108 119 128 133 136 137 138 141 140 138 136 131
65 61 58 57 55 53 50 50 49 49 49 51 55 54 55 54 55 59 62 65 71 79 88 94 95 97 102 112 121 128 133 134 137 138 141 143 140 136
60 56 52 50 48 48 46 47 47 45 46 49 51 51 52 50 50 52 56 61 64 70 80 88 93 91 93 100 108 115 122 127 130 135 139 142 144 143
54 51 49 47 44 44 45 43 43 42 44 45 47 47 48 49 47 48 52 56 59 63 68 78 85 87 90 95 99 103 109 114 118 126 131 138 141 145
48 47 46 46 42 41 41 38 37 37 40 41 43 41 44 44 45 46 46 49 55 60 62 68 75 81 84 87 90 94 99 102 105 111 120 129 136 138
46 44 44 45 42 36 38 36 34 33 36 38 37 37 38 40 43 46 46 45 51 56 59 63 69 73 77 82 86 89 91 92 95 98 107 115 124 133
44 42 40 40 38 36 36 34 30 31 32 33 33 33 34 36 38 40 43 46 47 52 53 55 64 67 72 78 82 85 87 88 89 92 95 101 109 115
38 36 36 34 33 32 33 31 29 28 28 29 30 30 31 32 34 36 38 40 45 49 49 53 60 62 66 72 77 81 83 86 88 90 92 95 100 103
33 31 30 27 25 26 28 28 27 26 27 27 27 28 28 29 31 33 34 36 40 42 44 50 57 60 62 67 69 72 77 81 85 89 91 93 95 98
30 28 25 23 21 21 23 24 24 24 25 26 26 26 27 29 30 32 33 36 39 41 43 47 51 53 58 62 66 68 70 74 78 83 89 92 95 97
27 25 21 19 18 18 20 22 22 23 24 25 26 26 27 29 30 30 31 33 36 37 40 43 47 50 54 56 59 62 66 71 73 76 81 86 91 93
25 23 20 18 16 17 18 19 21 22 24 24 24 25 26 26 27 28 29 32 34 36 37 38 41 45 49 51 53 56 59 63 69 74 77 79 81 86
23 22 20 18 17 16 17 18 20 22 22 22 23 23 23 25 27 28 29 30 31 32 34 33 35 39 42 43 45 49 53 58 63 69 73 75 76 79
21 20 18 18 18 18 17 18 19 21 21 21 22 22 23 24 26 27 27 27 28 28 29 30 29 33 37 38 39 42 47 52 58 64 69 71 71 74
19 18 17 17 18 19 19 20 21 21 22 22 22 22 23 25 26 26 25 25 25 25 27 27 27 27 31 35 37 38 41 46 53 59 63 65 66 70
18 19 18 19 19 20 21 22 23 23 24 24 24 24 25 25 26 25 24 25 24 24 25 28 28 27 27 31 35 37 38 41 47 53 58 61 62 65
20 19 20 19 20 21 22 23 24 24 25 25 26 26 26 26 25 25 26 26 25 24 24 26 27 27 27 28 32 35 37 39 43 48 53 56 58 61
21 20 20 20 21 22 23 23 24 25 25 27 27 26 26 26 26 26 26 26 26 25 25 25 27 28 29 29 30 33 36 37 40 43 47 52 53 55

GFSNE_250_spd_021.txt.gz
Wind_Speed
105 99 94 90 87 82 82 80 77 78 78 84 84 86 87 91 90 92 89 96 94 99 110 118 120 121 122 123 126 125 122 121 124 124 120 118 110 109
95 91 87 82 79 77 71 70 68 65 66 72 73 77 82 85 88 91 88 95 89 93 99 110 111 116 121 126 127 128 127 125 124 127 127 123 120 116
84 81 79 74 71 69 66 65 62 61 61 67 66 70 74 77 81 86 86 87 91 93 96 99 108 114 116 124 129 131 131 133 130 127 129 131 127 122
78 75 72 69 66 63 60 59 58 56 54 59 62 66 69 71 73 75 80 82 86 90 92 101 106 107 113 119 126 130 134 134 136 133 131 132 133 131
72 69 66 63 62 59 55 55 54 53 53 55 58 59 62 64 66 67 72 77 77 80 85 96 103 104 107 111 117 125 130 137 137 141 137 134 134 135
68 64 61 58 56 55 53 52 52 51 50 52 56 56 55 57 58 60 64 68 71 73 77 86 95 101 101 105 112 117 128 135 139 140 144 140 137 137
65 62 59 56 53 50 50 49 46 44 45 48 51 51 52 53 53 53 57 61 63 65 71 76 88 100 104 103 108 114 121 130 137 140 142 146 145 142
61 59 57 53 49 46 45 44 41 39 40 42 44 46 45 46 48 48 52 55 57 60 66 72 81 92 100 102 103 106 113 119 128 134 139 143 147 149
55 51 50 48 46 41 41 40 37 35 37 37 38 38 39 40 41 45 48 50 53 58 64 70 76 83 93 100 102 103 108 114 121 127 132 135 139 144
50 49 48 47 43 40 41 40 37 35 37 36 35 34 37 34 38 39 43 47 52 56 58 65 69 76 84 91 97 100 102 104 109 120 127 131 134 137
46 42 42 42 39 37 38 38 36 34 34 34 33 32 33 34 37 39 41 45 50 52 53 59 65 71 75 82 90 95 97 99 103 109 117 126 131 135
43 40 38 36 34 34 33 32 32 32 30 31 30 29 32 33 36 37 39 42 45 48 44 54 60 64 70 75 80 86 91 94 98 103 108 114 120 124
38 34 32 30 29 28 27 27 28 27 28 28 28 27 28 30 32 34 36 39 42 44 47 52 55 58 65 68 72 77 83 88 93 96 101 107 111 111
33 30 28 26 25 24 24 23 23 24 25 26 26 26 27 27 29 30 32 34 37 39 45 50 53 55 59 63 67 70 76 81 86 89 92 98 104 105
32 29 26 23 22 21 20 20 21 22 23 25 24 24 24 25 26 27 28 30 32 34 38 43 48 52 55 58 59 65 70 73 79 83 86 89 95 97
30 27 24 22 20 19 18 18 19 20 21 22 22 22 23 23 24 26 27 29 31 34 36 40 42 44 46 53 58 60 63 68 73 77 80 85 88 90
27 25 22 20 20 18 17 17 18 19 20 21 22 22 23 24 24 26 27 29 31 33 36 39 41 42 44 46 50 55 59 63 67 70 74 79 83 85
25 23 20 19 18 18 17 17 18 19 20 21 21 23 24 24 25 26 27 27 29 31 33 35 38 38 40 43 46 51 54 56 59 63 67 70 73 78
24 21 18 17 16 17 17 18 18 19 20 21 22 24 25 25 25 26 26 27 29 30 31 33 35 35 35 39 41 44 47 50 54 59 62 64 65 70
24 21 19 16 16 17 18 19 20 21 22 23 24 25 25 25 26 26 27 27 28 29 30 30 32 32 32 34 37 38 40 43 48 54 58 62 64 65
25 22 20 18 17 18 19 21 23 24 24 25 25 25 26 27 27 28 27 27 28 28 27 28 28 29 29 30 33 36 37 38 42 47 53 59 62 63
25 24 22 20 19 19 20 21 23 25 26 27 27 28 29 29 29 29 28 28 28 28 28 28 28 28 29 30 31 33 35 35 38 42 45 52 58 61
25 24 23 22 21 21 21 22 23 25 27 28 29 29 30 30 30 30 29 29 29 30 29 29 29 30 30 31 31 30 33 34 36 38 42 45 50 54

GFSNE_250_spd_024.txt.gz
Wind_Speed
105 100 97 94 90 88 84 80 74 76 79 91 92 91 95 97 98 98 99 101 107 106 113 117 121 123 123 124 128 128 127 126 123 121 117 118 111 107
95 91 87 83 79 77 74 72 69 65 72 81 85 86 90 92 95 96 98 99 103 107 109 113 115 117 121 122 125 131 134 134 132 129 126 124 124 120
87 82 78 75 73 69 65 62 61 59 59 72 76 76 80 83 85 87 91 95 99 103 108 112 111 114 114 114 117 124 134 137 138 135 132 131 131 129
79 75 72 68 66 64 61 59 58 57 56 64 68 70 70 75 78 79 81 86 90 96 105 108 105 112 114 112 113 118 127 136 139 141 138 135 134 135
72 69 66 63 60 59 57 56 55 53 51 54 61 60 60 65 70 72 73 77 83 87 93 102 104 109 107 106 111 114 119 130 138 143 145 143 141 139
66 63 59 57 55 54 54 54 52 50 49 48 54 55 55 58 61 65 66 69 75 78 82 87 95 100 102 109 109 111 111 118 130 140 144 148 145 143
61 58 56 53 51 49 49 50 48 46 45 45 49 50 52 53 54 59 63 63 67 71 76 79 84 91 95 103 110 111 109 114 123 134 142 147 150 148
57 55 54 51 47 45 44 45 43 42 41 41 45 49 48 46 48 52 58 59 62 65 71 74 77 82 87 94 100 109 108 108 111 118 131 142 147 150
55 54 53 50 46 43 42 43 42 41 40 38 43 44 42 43 43 49 51 54 58 61 65 68 70 75 81 87 92 102 108 111 109 112 119 129 139 147
52 51 49 46 43 42 40 38 38 37 38 38 41 37 37 36 41 43 46 51 56 58 59 62 63 69 75 81 85 94 105 110 109 109 112 119 130 139
47 46 45 42 40 38 36 34 33 32 32 33 33 33 33 35 38 41 41 46 51 53 54 57 58 63 68 75 82 89 96 104 105 106 109 113 121 130
44 41 38 37 33 32 30 29 28 28 29 29 28 29 30 31 35 36 39 41 44 47 49 57 58 59 65 72 78 83 88 94 99 103 106 109 114 121
39 35 32 31 29 27 26 25 24 23 24 25 26 27 28 29 30 32 34 36 38 43 50 53 54 56 60 63 67 74 80 86 90 93 97 103 108 111
38 34 31 28 26 24 23 21 20 20 21 22 23 25 25 26 28 29 32 33 36 39 43 47 51 53 56 58 60 65 72 79 83 85 86 92 100 106
35 32 28 25 23 21 20 18 18 18 19 19 21 22 24 25 26 27 29 31 33 36 39 42 46 48 52 55 55 59 64 68 74 78 80 83 87 95
32 29 25 23 21 20 18 17 16 16 17 18 19 21 22 23 24 25 27 29 32 35 37 40 43 45 49 52 53 56 59 64 68 72 74 78 80 85
30 27 24 22 20 19 18 17 16 16 16 17 18 19 21 22 23 25 27 28 31 32 34 35 38 41 43 45 46 49 55 58 61 66 70 72 73 75
27 25 22 21 19 17 18 18 17 16 16 17 18 19 20 21 23 24 25 26 28 30 32 34 36 38 40 42 43 44 46 51 56 60 62 64 67 68
26 23 22 21 19 18 18 19 19 18 17 18 19 20 21 21 21 22 24 25 28 30 31 32 33 35 37 38 40 42 44 48 50 53 56 59 61 63
26 24 22 21 20 19 19 19 21 21 20 20 21 22 22 22 22 24 25 25 26 28 30 31 32 33 34 35 36 38 41 43 46 48 51 53 55 60
28 25 22 21 20 20 21 21 22 23 23 23 23 24 24 24 25 25 26 27 27 28 29 31 32 33 33 34 34 36 38 40 42 44 46 48 51 56
27 25 23 21 20 21 22 24 24 24 25 26 27 27 27 28 28 28 29 29 29 29 30 31 32 33 33 33 35 36 37 37 39 41 42 44 47 51
27 25 23 22 21 21 23 24 25 26 26 27 28 29 30 31 31 31 31 30 30 30 30 31 32 33 33 32 33 34 34 37 38 38 40 41 44 47

GFSNE_250_spd_027.txt.gz
Wind_Speed
115 109 102 94 90 85 81 77 71 70 72 81 85 88 90 92 95 96 99 100 103 108 113 118 125 119 123 126 122 122 118 117 114 114 113 109 103 101
101 99 95 90 84 78 74 70 68 65 65 71 80 81 79 82 87 91 94 98 100 105 109 112 115 116 121 126 127 125 123 125 125 121 119 116 113 108
90 86 83 79 76 73 70 68 66 63 60 64 73 76 74 73 76 81 85 91 98 103 106 110 114 112 115 120 123 127 129 129 131 132 128 126 122 114
79 76 74 72 71 68 65 64 63 61 57 59 66 71 69 67 68 73 78 81 88 96 103 105 109 109 111 112 116 120 129 134 134 137 138 133 129 126
72 69 67 66 65 63 60 58 58 57 55 54 61 64 64 64 62 67 72 75 78 84 92 97 103 107 108 106 110 114 121 128 132 137 142 141 138 136
67 65 63 62 61 59 57 55 53 52 52 49 54 57 59 60 58 58 66 70 73 77 82 87 93 98 103 106 109 110 114 120 124 133 136 141 143 141
65 63 61 59 56 54 52 51 50 49 47 44 48 53 56 55 52 51 58 63 68 71 75 80 83 87 96 106 108 110 109 111 115 120 127 135 142 147
61 59 56 53 50 48 46 45 46 48 46 41 43 48 51 50 49 49 55 60 63 64 69 74 77 80 87 96 104 107 106 110 110 111 115 124 132 142
58 57 56 53 48 46 43 40 40 42 45 40 41 43 45 43 43 48 52 56 60 61 65 70 72 75 81 85 93 100 101 107 105 105 107 114 121 132
55 53 52 50 46 43 40 37 36 37 39 38 37 40 42 39 42 44 47 52 53 54 60 64 66 68 71 78 85 89 93 103 104 106 108 112 114 120
49 46 46 44 40 38 36 34 32 31 31 31 31 34 39 40 41 41 42 45 47 47 53 58 59 62 64 70 75 81 86 93 97 100 105 109 114 117
47 45 43 41 38 35 32 30 28 26 26 26 27 31 34 36 37 37 40 40 40 44 47 55 54 58 61 64 68 72 78 83 88 92 98 102 113 115
46 43 39 36 32 30 28 26 24 23 22 22 23 25 28 31 33 33 34 36 37 42 48 48 48 53 56 58 62 66 71 77 82 86 91 96 105 113
44 39 36 33 29 25 24 21 20 19 18 18 19 22 24 25 28 29 31 33 36 40 40 42 45 47 50 54 58 62 67 72 77 81 83 87 95 103
41 36 33 29 26 23 21 19 17 16 15 16 17 19 21 24 26 27 29 30 32 35 37 39 41 43 45 48 54 59 63 66 70 73 76 81 87 92
38 34 30 27 24 21 20 17 16 15 14 13 15 17 18 20 22 25 26 29 30 31 33 35 37 40 42 45 49 53 57 62 64 66 69 74 78 82
35 32 29 26 23 20 19 17 15 15 14 13 13 15 16 18 19 22 23 25 26 27 30 31 33 36 39 41 44 48 51 54 57 59 63 65 69 73
34 30 27 25 22 20 18 17 15 15 15 14 14 15 16 17 18 20 21 22 24 25 27 30 32 34 36 38 39 42 46 50 53 55 56 58 61 63
32 30 26 24 22 20 18 17 17 16 16 16 16 15 16 17 18 19 22 24 26 26 28 30 31 32 34 35 36 38 39 42 45 49 52 54 55 58
31 28 27 24 23 21 19 18 18 18 17 18 18 18 18 19 20 22 24 26 27 27 28 29 30 32 33 34 36 36 37 39 41 45 48 49 51 55
30 28 27 25 23 22 20 19 20 20 20 20 20 21 22 22 22 23 25 26 26 27 28 29 30 31 32 33 34 35 35 36 38 41 43 46 49 51
29 27 26 25 23 22 22 21 21 22 22 22 22 23 24 25 26 26 26 27 27 28 29 30 30 31 32 32 33 33 34 34 35 38 40 43 45 48
29 27 26 25 24 23 22 22 22 23 24 24 24 25 26 26 27 29 29 30 29 30 30 31 32 33 33 33 33 33 33 34 35 36 37 39 42 44

GFSNE_250_spd_030.txt.gz
Wind_Speed
115 110 104 99 95 91 86 80 74 71 74 74 73 74 75 77 83 89 93 94 95 100 107 113 117 119 128 128 129 125 120 119 117 112 106 102 101 99
103 98 93 89 85 81 79 77 73 67 66 70 72 71 70 70 75 80 83 88 91 93 98 104 112 115 120 122 125 128 125 123 124 122 116 110 106 107
93 90 85 81 79 76 73 70 68 64 61 67 68 69 68 68 68 72 75 79 84 87 91 96 103 107 113 117 116 123 126 126 125 129 126 120 114 111
86 82 79 76 73 70 67 67 65 62 57 58 66 67 63 64 66 65 68 71 75 80 85 90 95 99 104 108 110 115 120 122 126 129 131 125 122 117
78 75 72 69 67 64 62 60 58 56 53 51 59 62 61 60 61 63 61 67 69 72 78 83 87 94 98 101 103 108 117 118 121 125 127 132 131 127
71 69 66 63 61 59 58 57 55 53 51 49 52 57 57 56 56 59 56 60 66 68 71 76 80 85 91 97 98 101 105 109 117 121 124 131 135 136
68 65 62 59 57 56 54 54 53 51 50 49 49 50 54 54 51 52 55 56 62 67 67 69 74 77 84 90 93 99 100 103 110 115 121 127 132 139
64 63 60 57 54 51 48 46 47 48 48 46 45 46 47 48 47 48 51 56 59 63 64 65 69 72 76 82 86 93 98 99 103 106 116 120 127 133
61 60 58 54 51 48 45 41 40 38 39 41 42 40 40 40 44 45 48 51 56 59 61 61 64 67 69 74 79 84 90 96 99 103 107 112 119 128
55 54 52 50 47 45 42 39 37 35 32 32 33 36 36 37 42 42 42 47 52 52 56 57 59 62 65 69 73 78 82 91 95 98 103 107 109 118
53 51 48 46 44 42 39 37 34 32 31 28 27 29 32 34 36 36 38 44 44 43 50 52 55 57 60 64 69 73 77 84 91 93 97 102 104 109
52 48 44 42 40 38 36 34 30 29 28 27 26 26 26 29 32 34 37 37 36 37 43 45 47 52 56 58 62 68 71 77 83 87 90 94 98 102
52 47 41 38 36 34 32 30 27 25 24 23 23 24 23 24 26 29 31 33 34 37 43 40 41 48 51 54 58 63 68 71 76 82 85 87 90 93
49 44 38 36 34 31 29 26 24 22 21 19 18 20 21 21 24 26 29 31 34 36 35 35 38 41 44 49 54 59 64 68 72 76 80 83 84 85
44 41 38 34 31 29 26 23 21 20 18 16 16 17 19 21 23 24 26 28 30 31 32 34 36 38 41 46 51 56 60 64 68 71 74 77 80 84
40 38 36 33 31 28 24 21 19 18 17 15 15 16 17 19 20 22 24 26 27 27 28 30 32 35 38 41 45 49 54 58 61 64 68 71 74 77
37 36 35 32 29 27 24 20 18 16 16 15 15 15 15 17 19 21 22 23 24 24 25 28 31 33 35 38 41 44 48 51 55 58 61 65 67 69
36 35 34 31 28 26 24 21 18 16 14 15 15 15 15 16 18 20 21 21 22 22 23 26 29 31 33 35 38 40 43 46 49 52 55 57 60 62
35 35 33 30 27 25 23 21 19 17 15 15 15 15 16 16 17 18 20 21 23 23 23 24 26 28 30 32 34 36 38 41 44 48 52 54 56 59
35 34 32 30 27 24 23 21 20 18 17 17 16 16 17 17 18 19 20 20 21 22 23 23 24 26 27 29 31 33 35 38 40 42 44 46 51 57
35 33 31 30 28 25 23 21 20 20 19 19 19 19 19 19 20 21 21 21 22 23 24 26 26 27 28 30 31 33 35 36 37 39 42 44 46 48
35 33 30 29 29 27 24 22 21 20 20 20 21 21 21 21 22 23 23 24 25 26 27 27 28 28 29 29 30 31 32 34 36 38 41 43 45 48
33 34 32 30 29 27 26 23 21 21 21 21 21 23 24 24 25 25 26 27 28 29 30 30 30 30 30 31 31 31 32 34 35 37 39 41 44 46

GFSNE_250_spd_033.txt.gz
Wind_Speed
107 107 106 104 97 92 86 80 75 73 77 77 74 70 67 68 72 75 82 87 92 96 100 104 112 118 119 126 132 133 128 127 120 115 112 107 101 95
99 96 92 89 86 81 77 75 71 66 64 73 74 66 63 63 65 67 73 77 84 88 91 96 102 108 114 118 123 129 131 134 126 122 119 116 111 105
89 86 84 80 77 75 72 69 66 64 58 70 70 68 64 60 60 63 68 70 73 79 84 88 92 99 105 111 118 121 126 130 131 131 127 122 119 114
83 80 78 75 72 69 68 66 63 61 54 58 65 65 63 60 57 58 63 66 67 71 77 81 85 90 96 102 110 117 121 124 128 134 133 128 126 121
78 75 73 70 68 66 64 62 60 57 53 51 59 59 59 59 56 55 58 61 64 65 70 75 79 83 87 94 100 108 116 121 123 127 129 136 133 129
75 72 69 67 66 65 62 60 57 56 54 50 53 54 54 54 52 53 53 56 59 63 65 70 73 77 81 86 93 99 108 115 121 123 126 129 141 136
72 68 66 64 61 57 54 52 50 50 49 46 47 49 50 50 47 48 49 51 56 60 61 64 69 72 76 80 84 93 100 108 114 122 121 128 135 140
68 66 64 60 57 54 51 48 46 46 45 43 42 43 45 47 44 43 45 46 53 54 57 60 64 68 70 73 78 84 92 101 107 115 121 128 128 133
62 62 60 56 55 53 50 47 44 42 40 39 39 37 40 41 40 38 41 44 48 49 51 54 58 62 65 68 72 77 84 93 102 108 116 122 125 128
60 58 56 55 51 50 47 44 40 37 36 34 35 32 34 35 36 35 38 41 43 44 47 49 54 55 59 64 66 72 78 86 95 103 110 115 117 123
58 55 54 51 47 45 42 40 37 35 33 31 29 29 29 29 29 31 34 36 38 41 44 43 48 48 55 61 63 67 72 79 87 94 101 106 111 115
57 54 50 45 42 40 38 36 33 32 30 29 26 25 25 24 25 27 29 30 34 38 40 39 43 44 49 54 57 61 66 71 78 85 92 99 103 106
56 53 47 41 36 36 35 33 32 30 27 25 24 24 22 21 22 23 26 29 34 38 36 35 38 40 44 50 54 57 61 65 71 78 83 88 92 96
54 48 44 40 35 34 33 31 30 28 25 23 22 22 20 19 20 21 24 27 30 31 32 35 36 37 42 48 53 56 58 61 66 72 77 81 84 89
49 44 41 38 35 34 31 29 27 26 23 21 19 19 18 16 17 19 21 24 27 28 31 33 35 37 39 44 50 52 55 58 61 65 71 75 79 83
43 40 37 36 33 30 30 27 25 24 22 20 18 17 17 16 16 17 20 22 24 27 29 31 33 36 38 41 44 47 50 53 57 60 65 71 75 79
40 37 34 33 33 31 28 27 24 23 21 19 18 17 17 17 16 17 19 21 23 25 27 29 31 33 36 39 42 44 47 51 54 57 60 63 69 73
39 36 33 32 30 28 27 26 24 22 20 19 18 17 17 17 17 17 18 21 23 25 27 28 29 31 33 36 39 41 44 46 49 52 55 58 62 67
38 37 33 32 30 28 25 25 24 22 20 18 18 18 17 17 18 18 19 19 21 24 26 27 28 30 32 34 37 40 41 43 45 48 50 53 56 60
37 36 35 32 30 28 27 24 23 22 20 19 18 19 19 18 18 19 19 20 20 22 24 25 27 29 31 33 34 36 39 40 43 45 48 51 53 55
36 35 35 34 30 28 26 24 23 21 21 19 19 19 20 20 20 20 20 21 22 23 24 25 26 28 29 31 33 35 37 38 41 43 45 47 49 51
35 33 32 33 32 28 26 24 22 21 21 20 20 20 21 22 22 22 22 23 24 24 24 26 27 28 28 29 31 32 34 36 38 40 42 44 46 49
33 33 32 31 31 31 27 24 22 21 21 21 21 21 22 23 24 24 25 26 26 26 27 27 28 29 30 32 33 34 35 36 37 39 40 42 44 46

GFSNE_250_spd_036.txt.gz
Wind_Speed
107 105 101 99 97 95 92 89 84 79 82 84 79 73 69 67 69 71 75 77 84 90 97 104 109 113 118 124 122 126 134 129 126 118 116 112 109 102
105 100 97 94 91 87 83 78 74 70 65 77 74 69 64 61 61 63 69 72 77 82 88 94 101 107 113 117 122 121 126 132 132 127 124 121 117 111
98 94 91 86 83 79 75 70 68 65 57 71 66 65 64 59 56 57 61 66 71 75 79 85 91 97 103 111 118 121 124 128 131 136 133 131 124 119
91 86 83 80 76 72 69 65 63 61 55 59 64 61 62 61 56 54 55 60 66 68 72 79 83 88 93 100 110 117 122 127 134 133 135 128 127 124
84 80 76 72 70 67 63 61 59 58 55 53 60 57 56 57 57 56 54 54 60 63 69 71 77 81 86 91 99 109 117 124 129 126 126 136 133 133
78 74 71 68 66 64 61 59 57 55 53 51 55 52 51 51 53 53 53 52 54 58 63 67 71 75 80 84 89 97 107 117 127 126 120 130 137 138
73 70 68 65 63 60 57 56 55 55 53 51 49 46 45 45 47 48 49 49 51 54 58 62 66 69 74 79 82 87 97 107 116 119 123 126 135 141
71 68 64 62 60 59 55 54 53 52 50 47 44 44 42 41 41 42 42 42 45 50 54 56 59 65 69 74 78 82 88 98 104 110 118 124 132 138
69 66 62 59 58 57 56 53 48 45 43 42 41 39 38 36 37 37 37 37 40 45 50 54 55 60 65 69 74 77 82 89 96 100 109 121 132 134
66 62 59 56 55 55 53 49 44 41 40 38 36 35 34 32 32 33 34 32 37 42 48 52 51 53 57 63 69 73 77 82 88 95 102 113 126 133
62 59 56 54 53 51 47 44 39 38 37 35 33 31 29 27 27 28 29 29 33 38 42 45 46 48 55 60 64 68 72 76 81 88 96 106 117 125
58 56 54 52 49 44 42 40 37 36 34 32 31 28 25 24 24 25 26 28 30 34 36 38 43 49 52 55 58 62 67 72 77 82 89 98 106 114
56 54 52 49 43 40 38 37 36 33 31 29 27 24 22 21 21 22 22 24 26 30 35 38 41 43 46 49 52 58 62 67 73 77 83 91 100 108
54 53 51 45 41 38 35 34 33 31 29 27 25 22 20 19 19 19 19 20 21 24 29 32 35 36 39 43 49 54 58 63 68 73 78 84 92 98
51 51 47 42 39 37 35 33 31 28 27 25 24 21 19 18 17 17 17 19 20 24 28 31 33 37 40 44 49 53 57 59 63 67 73 77 83 88
50 48 43 41 38 34 31 30 29 27 24 23 22 20 19 18 16 16 16 18 20 22 26 30 33 36 38 41 44 50 53 55 59 63 68 72 75 80
48 44 40 38 37 35 33 29 28 25 23 22 21 20 18 18 16 15 16 17 19 21 24 28 31 34 37 39 41 45 48 52 55 58 62 66 70 74
46 41 38 36 33 32 32 29 27 26 22 21 20 19 18 18 16 16 16 17 19 21 23 26 29 33 36 38 41 43 46 48 51 55 59 62 66 71
43 39 36 35 33 31 29 28 27 26 23 21 19 18 17 18 17 17 17 18 19 21 22 25 28 30 33 35 37 40 43 45 47 50 54 58 62 66
41 38 35 33 32 32 30 27 26 25 24 21 19 18 17 18 18 18 18 19 20 21 22 24 27 29 31 34 36 38 40 42 44 47 50 53 57 61
40 37 34 32 31 31 31 27 24 24 23 22 19 18 17 18 19 19 20 20 21 22 23 24 26 28 30 31 33 36 38 40 42 44 46 49 52 55
38 36 34 33 32 30 30 29 25 23 22 22 21 18 18 18 19 20 21 22 22 23 23 25 26 29 30 32 33 35 37 39 40 42 44 46 48 51
36 34 33 33 32 31 29 28 28 23 22 22 22 20 19 19 19 21 23 24 24 24 25 26 28 29 31 32 33 34 36 38 39 40 42 44 46 48

GFSNE_250_spd_042.txt.gz
Wind_Speed
113 113 113 114 115 111 104 100 96 89 85 86 83 79 73 71 69 68 69 69 69 70 72 75 81 87 93 100 109 117 127 134 128 124 120 120 117 113
111 111 113 112 110 105 103 99 94 86 76 79 80 73 69 69 66 64 65 66 66 67 68 70 73 81 88 95 103 109 118 128 134 133 127 123 121 118
112 112 111 108 104 101 96 92 87 81 74 71 74 71 65 63 62 61 61 61 63 66 67 67 68 75 80 90 98 105 114 121 129 136 135 130 126 123
112 110 108 105 98 93 88 83 79 75 70 65 70 66 62 59 57 58 58 57 59 63 63 65 66 71 75 82 91 99 106 117 123 131 137 134 132 128
107 104 101 95 91 87 81 76 72 70 67 62 61 62 59 57 54 55 55 54 54 59 60 63 67 68 71 75 83 92 99 108 117 126 132 136 137 134
103 99 94 90 85 80 74 71 67 66 62 58 57 57 56 53 52 53 52 50 54 55 57 58 63 68 69 72 77 82 92 100 110 121 129 132 136 139
102 96 90 82 78 74 70 66 62 61 58 57 54 53 51 48 46 45 44 45 46 47 51 55 57 63 68 70 70 77 84 92 101 110 124 128 132 137
95 89 82 75 72 68 66 64 58 56 56 54 52 47 44 42 40 40 39 39 44 39 45 49 53 57 65 67 66 72 77 83 94 102 113 124 130 133
89 83 76 70 68 64 60 58 56 54 53 51 46 41 39 37 36 35 36 36 38 38 41 43 47 52 58 62 63 68 74 79 87 93 101 112 126 132
82 76 71 66 64 61 57 55 54 52 51 45 42 39 38 36 34 33 33 33 35 35 38 38 45 48 52 57 60 65 69 70 77 86 93 100 113 126
75 71 68 63 60 57 55 54 52 50 46 43 39 37 34 33 32 31 32 31 31 32 34 34 41 45 48 51 55 59 64 66 72 79 86 92 101 116
72 68 66 60 57 54 52 51 49 45 43 39 36 35 33 30 28 28 27 28 28 28 30 31 35 40 41 44 48 52 59 63 69 75 80 86 94 106
69 64 61 59 55 52 50 49 46 41 38 36 35 33 30 27 25 25 24 24 25 26 28 29 31 35 38 41 43 48 55 60 65 70 76 82 88 99
66 61 58 55 52 50 48 47 44 39 36 34 33 31 28 24 22 22 22 22 22 23 25 27 29 32 35 37 40 46 53 57 61 66 72 78 85 95
62 58 55 52 50 47 46 44 41 36 34 33 31 29 27 23 20 19 19 19 19 20 21 23 26 28 32 35 39 45 50 53 57 62 67 75 82 90
59 55 52 49 48 45 44 42 38 33 30 29 29 27 25 22 19 17 17 17 17 17 19 21 23 26 29 32 35 39 44 49 54 59 65 71 78 84
56 53 50 48 46 44 42 41 36 31 29 28 27 26 24 22 19 16 16 16 16 15 17 20 22 24 27 30 33 36 41 48 53 56 61 67 74 78
54 51 47 47 45 42 41 39 35 31 28 28 26 25 23 21 18 16 14 15 16 15 16 18 21 24 27 30 33 36 40 44 48 53 58 63 68 73
51 49 47 46 44 40 39 37 34 31 29 27 26 24 23 21 19 16 14 14 16 17 17 18 21 24 27 30 32 35 38 41 45 49 54 59 64 68
48 46 46 45 42 39 37 35 32 30 29 27 25 23 22 20 19 16 15 14 15 17 18 19 21 23 26 29 32 34 35 38 41 45 49 54 59 64
47 44 44 42 39 37 35 33 31 30 28 27 25 23 21 20 18 17 16 15 16 17 18 19 21 23 26 28 31 33 35 36 38 41 45 49 53 58
45 44 43 41 39 36 34 33 30 29 27 26 25 23 21 19 18 18 17 16 16 18 19 20 22 24 26 28 29 32 33 35 37 39 41 44 48 53
43 43 41 39 37 35 34 32 30 28 26 24 24 23 20 19 19 19 18 18 17 18 20 21 22 24 25 27 29 31 33 35 37 39 40 41 44 47

GFSNE_250_spd_045.txt.gz
Wind_Speed
114 113 113 112 112 112 113 110 101 93 90 90 89 86 78 71 68 66 65 64 64 63 66 69 73 79 84 88 94 101 106 111 119 124 123 125 128 127
114 114 113 111 113 114 113 106 99 93 86 84 83 78 72 69 67 64 63 63 62 62 63 65 66 71 77 83 89 96 103 108 113 123 128 126 128 130
114 111 111 113 112 111 109 104 97 89 81 77 75 70 68 65 64 63 62 61 60 59 61 62 65 67 70 77 85 90 96 105 112 118 128 132 129 131
110 110 111 111 108 105 101 95 89 81 76 71 71 67 64 62 59 58 58 57 57 58 58 59 61 65 67 71 78 87 92 98 108 115 124 132 135 132
109 110 108 106 104 97 90 84 79 75 71 66 65 63 61 59 57 54 54 54 55 55 57 57 60 63 65 66 72 80 87 93 99 112 120 130 138 137
109 108 108 102 93 87 83 78 73 70 67 65 62 60 56 54 51 51 51 51 53 52 55 57 58 59 63 64 68 74 81 87 95 104 116 125 136 141
105 103 99 91 83 83 79 74 70 67 64 61 59 56 53 52 50 46 47 49 46 45 53 54 55 58 61 63 65 69 73 80 88 97 106 120 131 139
101 99 94 89 84 81 75 70 67 64 62 57 55 53 51 49 45 43 44 45 45 40 49 47 49 54 55 61 64 64 67 73 80 90 98 108 122 133
100 95 92 87 79 75 68 65 63 60 56 55 54 52 49 45 42 39 40 41 42 38 43 44 46 47 50 54 59 61 61 68 76 84 90 99 110 125
96 89 84 79 73 70 66 62 59 56 52 50 50 49 46 43 40 38 38 37 38 38 40 38 41 44 46 50 52 57 60 62 70 77 85 91 100 113
86 80 78 73 69 65 63 61 56 52 49 48 48 46 43 40 38 36 37 37 33 36 37 38 37 39 40 43 47 51 55 57 63 72 78 87 92 102
79 74 73 68 64 62 59 57 53 50 47 46 45 42 40 38 36 35 35 34 33 32 33 33 34 34 36 38 42 47 50 53 60 67 74 81 85 94
76 72 68 65 61 58 56 53 49 47 45 45 44 40 36 33 32 33 33 32 31 30 29 30 30 31 32 33 37 41 45 50 56 64 70 76 80 87
72 67 63 61 58 55 53 49 47 45 43 43 42 38 34 31 31 30 31 31 28 27 26 26 27 28 28 30 33 38 42 46 52 59 65 70 76 82
66 63 60 58 54 51 50 46 44 43 41 41 39 36 33 30 29 28 27 28 26 25 24 24 25 25 26 27 31 34 40 44 50 56 61 66 72 79
61 60 57 54 50 48 46 44 43 40 38 38 36 34 31 29 27 26 25 25 24 23 23 22 23 24 25 27 29 32 36 40 46 52 58 63 69 76
59 55 52 50 47 45 43 42 41 39 36 36 33 31 29 28 26 25 23 23 22 21 21 22 22 23 24 26 28 30 34 38 44 50 56 62 65 70
56 53 49 47 44 42 41 39 38 37 35 33 31 30 28 26 25 23 22 21 21 20 20 20 20 22 23 25 27 29 33 37 42 47 53 57 61 67
52 50 48 44 42 40 39 37 36 35 33 32 30 28 26 26 23 22 21 20 20 20 20 19 19 21 22 23 26 28 31 37 42 46 50 54 58 62
50 48 46 44 41 40 39 37 35 34 31 29 28 27 26 25 23 22 20 19 20 20 19 19 20 21 23 24 24 27 31 33 37 42 45 50 54 59
51 49 46 43 41 39 38 36 35 33 31 29 27 26 25 24 23 22 20 19 19 20 20 20 21 22 23 24 25 26 28 32 36 39 43 47 50 54
50 48 45 41 39 38 37 35 32 31 29 28 26 25 25 23 22 21 20 19 19 20 20 20 22 22 24 25 26 27 30 31 34 38 41 44 47 50
47 45 43 41 38 36 35 34 31 30 28 27 25 24 24 23 22 21 20 20 19 20 21 21 22 23 25 26 28 29 30 33 35 37 39 42 46 48

GFSNE_250_spd_048.txt.gz
Wind_Speed
101 106 112 116 114 109 108 109 110 107 105 102 99 91 87 80 74 70 66 63 61 62 62 64 68 72 76 79 83 85 89 98 106 113 123 131 128 130
107 113 117 114 111 108 109 110 109 106 100 95 90 86 81 73 68 64 62 60 58 57 56 57 59 65 70 74 78 82 85 93 103 109 117 131 134 132
114 116 113 109 109 109 110 110 108 101 92 88 84 79 73 68 65 62 59 58 55 53 53 54 56 61 65 70 73 78 83 90 98 106 113 123 137 139
113 113 109 108 109 109 108 106 103 94 87 82 78 73 68 66 62 60 59 55 54 52 51 53 54 57 64 66 69 73 78 84 93 101 110 116 129 141
109 108 110 110 110 108 105 102 98 90 81 75 71 67 65 60 59 57 56 54 52 51 52 53 54 56 59 61 65 70 75 80 87 95 104 114 122 133
110 112 111 110 110 106 99 94 88 82 76 71 68 65 62 57 55 56 54 51 48 47 52 53 51 52 54 58 62 66 70 76 83 90 99 108 117 126
111 111 110 109 105 100 93 86 79 76 73 69 66 62 58 55 54 51 50 51 44 46 49 43 47 48 49 54 58 62 65 70 78 84 92 100 111 122
112 111 108 103 101 93 86 80 74 72 69 66 62 59 56 53 50 47 46 43 42 42 46 38 44 44 45 49 54 59 62 66 73 79 87 95 103 114
111 109 103 97 91 85 81 77 71 66 65 64 61 56 54 50 50 45 41 39 39 40 41 37 43 41 43 45 48 52 56 60 67 73 82 90 97 106
106 99 93 87 83 80 75 71 66 62 60 57 56 53 50 48 46 44 41 37 36 38 39 33 38 39 41 41 44 47 50 56 61 68 76 84 91 97
97 89 85 80 76 73 69 65 62 60 57 54 52 49 46 44 43 41 38 38 35 35 37 33 33 33 36 38 41 44 46 50 56 62 70 78 86 91
88 83 78 74 71 68 65 62 61 57 52 50 48 45 43 41 40 39 38 38 35 32 34 31 32 31 30 33 38 40 44 47 51 56 65 74 82 87
81 76 71 68 65 62 60 59 57 53 49 47 44 42 39 38 36 35 35 35 33 30 29 31 30 29 27 28 32 36 40 44 48 52 61 70 77 81
76 70 66 64 62 58 57 55 52 49 46 44 43 40 37 35 34 32 32 34 32 29 28 29 29 27 26 25 28 31 36 41 46 50 57 65 71 77
71 66 63 59 57 55 53 50 48 46 43 42 40 39 37 35 31 30 31 31 31 30 27 25 25 25 23 22 23 28 33 38 42 47 52 60 65 70
67 61 58 56 53 50 48 46 44 42 40 39 37 36 35 34 30 29 29 29 29 28 27 24 23 22 20 20 21 25 30 34 38 43 49 56 61 66
62 57 54 51 49 48 46 43 41 40 39 38 35 34 33 32 29 27 28 27 26 27 25 22 21 20 19 19 19 23 26 30 35 40 46 52 57 61
60 55 52 50 47 46 44 42 40 39 37 37 34 33 31 30 27 27 26 26 24 24 23 21 20 18 18 18 19 21 26 30 34 38 42 47 53 59
58 53 51 51 48 45 43 41 39 39 37 35 33 32 30 28 27 25 24 25 22 22 21 20 19 17 17 16 19 21 24 28 32 37 42 46 52 58
55 54 51 50 47 44 42 39 37 36 35 34 32 30 29 27 26 24 23 23 22 20 19 19 19 17 17 17 19 21 24 28 33 37 42 47 52 57
53 52 50 48 46 43 40 39 36 35 33 32 30 29 28 27 25 24 22 22 21 19 19 18 19 18 18 18 19 22 25 28 31 35 40 45 51 55
52 51 49 47 44 42 39 38 36 34 33 30 29 27 27 26 25 23 22 21 21 19 18 18 19 19 19 18 20 22 25 28 31 35 38 42 47 53
50 49 48 45 43 40 38 36 35 34 33 31 29 27 26 26 25 23 22 21 20 20 19 19 19 20 21 20 20 22 24 28 31 34 37 40 45 49

GFSNE_250_spd_051.txt.gz
Wind_Speed
105 104 104 109 114 116 115 114 109 106 105 106 107 104 99 94 90 83 78 75 70 66 63 62 62 64 67 69 71 75 79 85 93 105 114 119 125 133
103 110 112 114 114 114 113 111 109 107 105 105 104 97 91 85 80 75 70 67 64 61 57 56 58 58 61 65 67 71 77 83 89 97 110 117 123 132
112 113 112 111 112 112 112 112 111 107 101 100 94 88 82 76 74 70 65 63 59 55 53 54 54 55 57 62 64 68 72 79 87 93 103 112 120 127
114 113 112 111 110 112 113 111 107 102 96 94 89 81 76 72 71 67 62 56 55 53 52 51 51 51 54 58 61 65 69 74 81 90 98 104 115 123
111 111 111 111 113 112 109 108 103 98 92 87 81 78 74 70 68 63 59 55 51 51 53 50 47 48 51 54 57 62 67 72 78 85 93 101 107 118
112 111 112 113 113 111 107 102 95 90 85 81 77 74 69 64 61 60 56 53 49 49 51 45 47 49 50 51 54 58 63 69 75 82 88 95 103 110
112 114 114 113 111 107 99 92 88 84 81 76 72 68 63 61 57 54 53 53 47 49 49 41 50 47 47 49 50 54 58 64 71 79 85 92 98 106
115 115 112 110 105 97 92 87 82 78 75 71 68 64 60 58 54 52 51 48 47 46 46 37 46 41 43 44 46 50 55 60 65 73 81 87 93 99
115 112 108 103 97 91 86 81 77 73 70 66 64 61 59 54 51 50 46 45 44 44 41 32 39 38 38 40 43 47 49 54 60 67 76 83 89 94
111 108 102 96 91 84 80 75 71 67 64 62 61 59 55 52 50 48 44 42 41 40 40 29 34 34 35 39 40 42 44 48 55 62 69 78 85 90
107 100 94 90 83 77 73 71 68 63 61 59 57 54 51 49 48 46 43 42 39 35 36 28 30 31 33 37 37 38 41 45 49 55 63 70 78 85
101 93 88 83 77 73 69 66 63 59 56 54 51 49 48 46 45 44 42 39 38 31 33 28 28 31 27 31 33 36 39 42 43 49 56 65 73 80
95 89 83 77 73 68 64 63 59 56 52 50 48 46 44 43 43 41 40 39 36 31 30 29 25 26 26 25 31 31 36 39 40 45 52 61 70 76
90 83 77 71 68 64 61 58 54 51 49 47 46 43 41 40 39 38 37 36 34 28 27 27 26 24 22 23 24 28 31 36 39 42 47 54 63 71
84 78 72 68 64 61 57 53 51 49 47 46 44 41 39 38 35 34 34 33 31 27 26 24 23 23 22 20 22 24 28 32 36 39 43 50 56 65
77 75 68 64 61 57 54 52 51 48 47 45 42 40 39 37 34 32 31 30 29 28 23 24 21 20 20 19 20 21 25 29 32 36 39 44 52 59
73 70 63 60 57 53 52 51 49 47 45 42 41 39 38 35 33 31 29 28 27 26 24 21 20 19 18 18 18 19 23 26 29 33 37 41 47 53
68 65 60 57 55 52 49 48 47 45 43 41 39 37 36 33 31 29 28 27 25 24 23 20 18 17 16 17 16 18 21 24 26 30 35 39 43 50
64 63 59 55 54 52 49 46 44 43 41 39 37 35 34 32 29 27 26 26 24 22 21 20 18 16 15 16 15 17 19 23 26 30 34 40 45 50
61 61 58 54 52 51 48 46 43 41 40 37 35 33 33 31 29 27 25 24 23 21 20 19 17 16 14 14 15 16 19 22 25 29 33 37 42 47
60 57 56 53 51 50 47 44 42 40 38 36 34 32 31 30 28 27 25 24 22 21 19 18 17 15 14 15 15 16 18 22 24 28 32 35 38 43
57 55 52 51 49 46 45 42 40 38 36 34 32 31 30 29 28 27 25 23 22 21 18 18 17 15 14 15 16 17 19 22 24 27 31 34 37 41
52 50 48 47 46 44 42 40 38 36 34 33 30 29 29 28 27 27 25 23 22 20 19 18 17 16 15 15 17 19 20 22 25 27 30 33 36 39

GFSNE_250_spd_057.txt.gz
Wind_Speed
92 94 97 100 103 106 112 117 118 121 122 119 116 111 106 101 96 93 92 89 85 80 78 76 73 71 71 70 70 70 70 70 71 73 78 86 96 102
96 98 102 104 107 112 117 120 124 123 118 120 113 106 97 91 87 86 83 79 76 72 70 68 66 65 64 65 66 66 66 66 66 67 71 80 89 98
99 102 105 108 112 117 120 123 124 122 118 113 105 100 91 85 81 78 74 69 67 64 62 61 60 57 57 59 61 62 63 65 64 65 68 75 84 92
103 105 107 112 118 119 123 125 124 121 112 104 102 94 89 83 76 72 69 64 62 59 58 57 55 53 53 54 55 56 58 60 61 63 64 70 78 87
106 107 113 118 119 122 125 125 123 117 109 102 98 90 84 77 72 68 65 61 57 55 56 54 51 51 51 51 52 53 55 57 58 60 61 66 74 82
108 113 118 120 121 126 126 123 120 112 105 100 93 85 79 74 69 66 63 57 55 51 52 50 51 50 47 49 50 51 52 54 55 58 61 64 70 77
114 118 120 119 125 127 122 121 115 107 101 93 87 80 76 71 67 63 61 56 52 50 47 45 50 47 46 46 47 49 49 51 53 56 59 63 68 73
117 118 119 124 127 123 120 117 110 100 94 87 81 76 72 66 63 59 57 54 49 48 46 41 48 42 43 43 46 46 46 48 52 55 58 61 65 71
118 119 122 127 123 119 116 111 101 94 88 82 75 72 67 63 60 56 53 50 47 48 47 39 42 39 39 40 44 44 42 42 48 53 56 60 64 67
119 122 126 124 120 115 109 103 95 89 83 76 71 68 65 61 57 54 51 48 43 44 47 41 35 36 36 40 42 43 41 40 46 49 53 59 62 66
122 126 124 120 115 108 101 96 89 83 78 72 69 67 63 59 55 53 51 48 44 39 44 40 36 33 34 37 39 44 42 40 42 44 48 53 59 63
123 124 122 115 107 102 96 90 84 79 76 70 66 64 61 57 53 51 51 47 42 38 39 36 36 37 31 33 37 44 41 40 39 41 43 47 52 59
120 119 114 109 101 96 90 85 78 78 75 68 63 60 58 54 52 49 48 46 42 38 35 35 33 36 36 30 34 39 40 37 36 39 42 45 49 54
115 110 107 103 96 91 85 80 76 74 71 65 60 58 55 51 50 48 46 45 43 39 33 33 33 33 32 34 31 32 38 36 37 38 39 42 45 50
111 104 100 97 91 85 81 77 73 71 67 63 57 55 52 49 47 45 44 42 40 39 34 29 32 31 30 30 31 32 33 34 35 36 36 39 43 47
107 101 94 90 86 81 78 74 70 67 63 59 55 53 49 47 46 44 41 40 37 37 35 28 29 29 29 29 29 30 32 31 32 34 35 37 39 42
97 96 90 84 80 77 74 71 67 64 60 56 53 50 47 45 44 43 40 37 34 32 33 31 27 26 27 29 28 27 28 29 30 31 33 34 35 38
90 86 84 80 76 71 69 66 63 60 56 53 50 47 44 43 41 40 37 34 32 30 29 27 27 26 26 27 26 26 25 26 28 30 31 31 33 35
85 82 80 76 73 68 64 61 59 55 51 49 46 44 42 40 38 37 35 32 30 28 27 26 24 24 25 26 25 24 23 24 26 28 28 28 31 33
81 79 75 72 70 64 59 57 54 51 47 46 43 41 39 37 36 34 32 30 29 27 25 24 24 23 23 24 24 23 21 22 24 26 26 27 29 32
77 74 71 68 65 59 55 53 50 48 45 43 41 39 37 35 34 32 30 28 27 26 25 24 22 23 22 22 22 21 20 21 23 24 25 26 28 31
73 71 68 63 60 55 50 49 47 44 41 40 38 36 34 32 31 30 28 27 26 25 24 23 22 22 22 20 22 20 20 20 21 22 24 26 27 30
70 67 65 59 55 51 46 45 43 40 38 36 35 33 31 30 29 29 27 26 25 24 23 22 21 21 22 19 20 21 19 20 21 22 23 26 28 29

GFSNE_250_spd_060.txt.gz
Wind_Speed
88 90 93 97 100 102 103 105 107 109 114 120 118 117 117 118 111 106 103 97 91 84 80 78 76 74 72 72 72 73 72 70 69 69 70 75 82 88
92 94 97 100 102 104 106 109 112 115 117 121 120 120 121 116 107 101 94 88 81 78 74 72 68 66 64 64 65 66 66 65 65 66 66 69 76 82
98 100 103 103 105 108 111 113 118 120 119 120 122 123 115 110 104 96 88 81 77 73 71 67 63 60 58 58 59 61 61 60 61 62 64 65 69 74
101 103 106 107 110 113 115 119 122 121 121 120 123 120 112 104 97 91 84 77 72 68 68 64 60 57 55 55 55 57 56 57 57 58 59 63 65 69
104 106 108 111 115 116 120 122 121 122 123 121 116 113 107 100 93 86 81 73 67 63 62 59 56 54 51 51 51 52 54 54 55 55 55 58 61 66
105 107 110 114 116 120 122 121 122 125 124 118 112 108 103 95 88 80 75 69 64 60 58 56 53 51 47 47 49 50 51 52 52 52 53 56 58 62
108 110 113 115 120 121 122 123 125 124 119 114 109 105 98 89 81 76 71 68 62 57 55 50 51 47 46 43 46 47 47 49 49 50 53 54 57 60
111 115 115 118 121 122 123 125 124 123 117 112 106 100 91 84 77 73 69 65 61 53 54 47 48 45 44 42 44 45 44 45 47 48 51 53 55 59
114 116 119 122 121 125 125 121 121 119 115 107 100 94 86 79 73 70 65 62 59 54 53 49 46 41 43 40 42 43 43 44 45 47 49 51 54 58
115 118 120 121 126 125 122 120 118 113 106 97 94 87 81 75 71 67 62 60 56 52 50 50 45 39 37 42 41 42 42 42 43 46 49 50 53 56
117 116 120 124 127 123 122 117 112 109 98 92 87 80 78 72 69 64 60 57 54 49 46 46 44 41 32 39 41 42 42 40 40 42 44 46 50 54
113 119 124 124 123 122 115 110 104 100 92 85 80 78 72 68 67 60 57 54 51 48 44 42 41 43 33 34 39 42 41 40 36 37 38 42 45 49
119 121 122 121 117 113 109 103 98 92 85 81 76 72 67 65 63 57 54 51 49 47 43 39 37 40 38 32 36 38 40 38 35 35 36 38 41 45
121 120 118 117 110 105 102 97 91 85 81 76 73 68 63 61 58 54 52 49 47 46 41 38 35 38 37 33 34 36 37 35 34 34 31 34 38 42
125 121 115 108 103 98 94 90 86 82 77 73 70 65 60 57 55 51 49 46 44 44 41 36 33 35 37 33 32 32 32 34 32 31 32 32 35 38
117 113 109 103 97 91 88 84 81 77 72 69 65 61 56 53 51 48 45 42 41 40 39 35 31 31 35 32 31 29 28 30 29 31 32 32 34 37
105 102 99 95 90 87 83 79 75 73 68 65 61 57 53 49 47 44 41 39 38 37 36 35 31 29 31 31 30 27 27 27 29 29 31 31 32 33
100 95 91 87 85 81 79 75 71 68 64 61 57 53 49 46 43 41 39 37 35 34 32 33 32 30 28 28 28 26 25 25 27 28 29 29 29 30
93 89 85 82 80 76 74 71 66 61 60 57 53 49 46 43 39 38 37 34 32 32 29 30 29 30 29 26 26 26 24 23 24 26 27 28 28 29
87 84 80 77 75 72 69 66 62 56 55 52 48 45 42 39 37 36 34 32 31 30 28 28 28 28 27 25 24 25 24 23 24 25 25 26 26 27
84 81 77 74 71 67 63 61 58 53 50 48 44 41 38 35 34 33 32 30 30 29 27 26 26 26 26 24 24 24 24 22 23 24 25 25 25 27
81 79 76 71 66 62 59 56 54 50 47 45 41 39 36 33 32 32 30 29 29 28 27 25 25 25 24 23 23 24 23 22 22 23 24 25 25 25
78 75 71 66 61 58 55 52 51 47 44 41 38 37 34 32 31 30 29 28 28 27 26 25 24 23 22 22 21 23 22 21 22 22 23 24 24 24

GFSNE_250_spd_063.txt.gz
Wind_Speed
87 88 94 97 101 103 105 106 108 109 112 114 117 119 119 115 114 116 113 109 107 103 101 96 89 85 78 73 71 70 69 68 66 64 63 63 65 69
90 94 100 102 104 106 108 111 114 116 113 118 121 122 123 121 121 118 113 109 103 99 97 92 86 79 73 68 63 63 64 64 61 60 59 59 60 64
93 97 102 105 107 109 111 114 117 118 118 119 123 125 123 126 121 112 112 106 99 92 89 84 82 74 69 64 59 58 59 59 58 57 56 57 58 60
97 100 103 107 109 112 114 117 118 121 121 122 123 124 127 126 121 115 109 103 97 89 85 79 75 70 66 61 56 55 54 54 55 54 53 55 56 58
99 102 105 108 111 114 117 119 121 121 124 124 122 125 126 124 119 111 104 98 93 86 78 75 72 66 63 58 53 53 51 51 51 52 51 52 53 55
102 104 106 109 112 116 118 120 123 125 124 125 127 126 123 119 115 106 98 95 86 80 73 70 68 64 61 57 51 49 48 48 49 48 48 48 50 53
102 104 106 109 113 116 118 123 126 126 126 130 128 124 120 117 112 105 97 89 84 74 70 67 63 61 58 54 51 46 48 47 47 46 46 47 49 52
102 104 106 110 115 115 117 122 125 127 129 130 127 122 117 113 109 101 93 85 78 74 65 64 58 57 54 50 52 48 47 46 45 44 44 46 48 50
105 107 109 115 117 119 121 121 121 123 127 127 122 120 115 111 102 93 86 80 75 70 62 60 55 52 51 48 50 48 45 44 43 42 43 45 47 50
105 107 112 115 118 119 122 124 127 127 125 119 113 111 109 102 95 86 81 76 72 65 58 56 51 48 49 46 48 47 44 41 40 40 40 43 46 49
106 110 112 116 118 122 126 126 128 126 125 119 111 106 100 92 86 81 77 71 68 62 55 53 48 47 46 44 44 45 43 39 39 37 39 42 43 46
106 109 115 117 119 121 123 125 125 122 118 115 108 100 93 86 80 76 71 68 62 60 53 50 45 44 45 41 41 44 40 40 36 36 39 40 42 45
108 111 113 115 118 122 124 122 120 115 112 108 101 93 85 80 76 73 70 60 58 56 50 47 43 42 43 41 37 43 40 37 34 35 36 37 40 43
110 111 114 117 119 119 118 118 114 109 104 99 93 86 80 75 70 67 63 62 55 51 47 43 41 40 40 40 37 39 39 36 32 34 34 36 38 41
111 114 115 117 117 116 116 111 107 101 95 91 85 80 75 71 66 62 58 54 53 48 45 40 39 37 38 38 33 36 34 34 33 32 33 33 35 37
111 113 114 114 113 112 108 104 98 93 88 85 81 75 71 66 62 58 55 51 48 45 42 40 37 35 35 37 32 31 31 31 33 31 31 30 31 32
110 110 110 108 105 102 99 95 90 86 82 80 76 70 65 61 58 54 51 48 46 43 40 39 36 32 32 33 31 29 29 29 29 29 28 29 29 30
108 108 106 102 98 95 92 88 83 81 78 75 71 66 59 57 54 50 47 45 43 40 38 36 34 31 30 30 29 28 28 27 25 27 27 27 28 29
108 104 99 95 93 90 85 83 79 75 74 69 64 61 55 53 50 46 44 42 40 37 35 33 32 31 30 27 26 28 28 25 24 24 25 26 26 27
103 97 94 91 88 85 81 77 74 69 66 64 60 55 52 51 47 44 41 39 37 35 33 31 30 30 29 27 25 26 27 24 22 23 24 24 24 26
96 92 89 86 85 81 77 72 68 64 62 60 55 51 48 47 43 41 38 36 35 33 31 29 28 29 28 26 25 25 27 23 21 22 22 23 23 23
89 87 85 83 81 77 72 67 63 59 56 55 52 48 46 43 40 38 36 34 33 31 29 28 27 27 27 26 24 24 25 23 21 21 21 22 22 21
85 83 81 79 75 70 67 62 59 56 53 52 48 45 44 41 38 36 34 32 31 30 28 27 26 25 25 25 24 23 24 23 21 21 21 22 21 21

GFSNE_250_spd_066.txt.gz
Wind_Speed
82 85 88 91 93 97 101 105 106 108 109 112 114 116 117 119 121 121 118 118 119 118 116 111 104 96 90 85 80 76 73 70 69 68 65 64 62 63
83 87 89 92 95 101 104 108 111 112 111 114 115 117 119 124 129 124 122 121 123 121 115 111 100 96 90 82 74 70 66 64 65 65 62 59 59 58
89 89 94 96 101 104 107 109 111 114 113 112 115 119 122 128 128 127 126 127 123 118 115 107 95 90 87 79 74 68 63 61 62 61 59 56 54 54
93 96 97 99 102 105 106 110 113 115 116 115 117 121 125 129 128 129 129 129 121 115 109 101 94 86 81 74 73 67 62 59 59 58 55 53 52 52
90 92 96 98 100 104 107 110 113 115 119 121 121 122 124 126 130 129 128 123 115 108 103 94 88 82 79 72 69 65 59 56 54 54 51 50 49 49
87 90 93 97 100 104 108 111 114 117 121 125 125 125 125 127 128 127 124 116 108 105 94 88 81 77 76 70 67 63 57 52 52 50 48 46 46 47
87 90 93 98 101 105 109 113 117 121 123 126 127 129 129 129 128 125 122 112 105 102 88 85 79 74 71 66 64 60 56 48 47 48 43 44 45 45
87 91 96 100 104 110 112 116 118 121 121 124 123 125 127 128 127 121 115 109 101 97 84 80 75 70 66 63 61 57 53 47 41 45 43 43 44 45
89 91 99 105 110 114 119 120 120 122 124 126 125 125 125 125 122 116 110 102 94 89 80 74 70 66 62 60 57 53 51 45 41 40 42 41 43 44
93 99 104 109 115 120 119 118 119 120 121 124 127 126 124 121 117 110 100 94 89 84 75 67 67 61 58 56 53 50 49 43 39 39 40 40 42 44
101 105 110 113 118 119 117 119 117 117 121 125 127 126 121 117 111 103 96 89 82 79 71 65 62 57 55 52 49 47 46 40 38 37 38 40 41 42
105 109 113 116 114 117 120 118 116 118 120 121 123 121 116 110 104 98 91 84 76 74 67 62 57 51 52 48 46 43 43 39 36 37 38 39 39 41
108 111 110 111 116 115 114 116 118 118 118 119 117 114 108 102 96 91 85 81 74 67 60 57 53 48 48 44 42 41 41 38 35 35 37 37 38 41
109 110 114 111 107 109 113 116 117 117 115 112 109 106 102 96 88 82 79 77 71 64 57 51 49 44 43 42 38 38 39 38 35 34 35 35 37 40
109 109 105 106 108 110 115 118 116 113 110 106 104 100 94 89 84 77 71 67 65 60 55 49 44 42 40 39 36 36 36 36 34 33 33 34 36 37
104 106 107 109 111 113 115 114 111 107 103 100 97 92 86 82 77 71 67 60 57 55 50 47 43 39 36 37 35 34 35 33 34 31 31 33 33 35
108 108 109 110 113 113 112 110 106 101 96 91 90 86 81 77 71 65 62 58 55 50 46 43 40 37 34 34 34 32 32 31 31 32 31 32 32 32
111 110 111 112 112 109 106 101 99 95 90 84 84 82 75 70 65 59 56 54 51 47 44 41 38 35 33 33 32 32 30 29 29 30 30 28 30 30
114 114 114 112 108 104 99 95 93 91 85 79 77 75 69 65 59 56 53 51 47 43 41 38 36 33 32 31 31 30 29 28 27 27 28 27 28 29
116 116 111 108 103 98 94 91 90 86 83 77 68 66 64 59 55 52 50 47 43 40 38 36 34 33 31 30 28 27 28 27 25 25 26 27 27 27
117 113 108 102 97 94 91 88 86 82 76 71 66 63 61 55 51 48 47 44 40 38 36 34 32 32 30 29 27 26 26 26 24 23 25 26 26 26
111 106 101 97 93 90 87 84 80 75 70 66 63 60 57 52 47 44 43 40 37 36 34 32 31 30 29 27 26 25 25 25 23 21 23 24 24 25
104 99 95 93 89 86 82 78 73 70 65 62 59 54 52 47 44 43 40 37 35 34 33 31 29 28 27 26 25 24 24 24 23 21 22 23 23 23

GFSNE_250_spd_069.txt.gz
Wind_Speed
76 77 81 84 87 92 94 97 97 101 107 111 109 113 115 115 115 114 117 119 119 119 119 119 117 117 112 106 96 91 82 76 73 72 71 71 70 68
78 81 85 87 88 90 95 102 103 102 100 103 108 112 114 116 119 121 121 127 121 120 120 119 116 113 111 103 94 87 79 73 69 66 65 66 63 60
80 81 84 87 91 92 92 93 95 98 99 103 105 109 111 119 123 126 131 126 125 124 121 118 113 113 108 101 92 83 75 71 64 61 61 62 60 56
76 78 79 80 83 86 90 93 97 100 99 101 104 111 117 121 124 128 127 127 127 124 123 118 111 107 103 93 87 77 71 68 63 60 58 58 57 53
71 74 78 81 85 89 92 94 97 101 104 105 107 113 120 125 127 124 124 127 124 123 121 112 105 99 93 85 82 75 69 65 61 58 54 53 53 50
73 77 79 82 85 88 92 94 98 103 108 111 115 118 122 121 122 126 124 124 123 123 118 110 103 94 87 80 76 71 67 62 58 55 51 52 50 49
75 79 82 85 86 89 93 98 103 107 109 111 115 113 115 122 125 123 123 124 120 119 111 102 93 89 81 74 70 66 64 60 56 52 47 49 49 46
78 82 85 89 91 92 95 101 105 107 111 111 114 117 116 115 119 124 123 124 122 115 104 96 90 83 76 73 68 64 62 57 53 48 44 45 48 44
83 86 91 94 95 99 102 106 108 112 114 116 116 116 115 118 119 122 123 122 115 108 96 88 87 81 74 70 65 61 57 53 49 44 42 42 46 43
87 91 93 97 99 99 101 104 106 109 111 112 115 115 116 118 121 121 119 114 106 100 90 82 82 76 71 65 60 58 53 49 45 41 39 41 42 43
92 95 97 97 101 101 100 103 104 107 110 110 112 116 119 119 119 118 114 106 98 92 87 78 77 71 67 60 56 54 51 45 42 38 38 40 40 40
91 94 97 98 101 104 105 102 101 104 104 108 114 117 119 118 115 112 105 99 92 86 82 75 70 65 63 55 52 50 47 42 39 36 37 39 38 38
89 93 95 94 96 98 104 107 104 105 108 113 114 114 113 111 107 104 98 92 86 83 76 70 66 61 56 54 47 47 43 39 37 35 35 36 36 36
87 93 99 98 98 103 104 104 108 113 113 114 112 111 107 102 100 96 92 86 81 76 70 63 61 56 53 50 48 42 41 39 36 34 33 33 35 37
94 96 99 99 100 101 106 111 114 117 117 114 110 106 100 96 94 89 85 82 76 70 64 59 56 51 49 48 44 41 38 37 34 32 32 32 33 35
96 100 99 103 105 109 116 119 120 119 114 109 103 100 96 92 88 84 79 74 69 65 59 55 53 49 45 44 41 37 36 34 34 30 30 31 31 32
104 108 111 115 117 120 121 121 122 118 112 106 100 95 92 89 83 79 72 66 63 62 57 52 49 45 42 40 38 35 34 33 31 30 28 29 31 30
107 115 121 120 121 121 120 120 116 112 106 102 94 89 87 85 76 73 65 61 59 57 53 50 46 43 40 37 35 34 32 31 30 28 28 28 31 28
117 123 124 124 122 122 117 113 109 105 99 95 92 86 80 79 73 65 63 58 55 52 49 45 42 41 36 34 35 32 31 29 29 28 27 28 30 28
123 124 126 124 121 117 112 108 102 96 93 90 88 83 76 70 67 61 57 56 51 47 45 42 40 38 34 31 33 31 30 29 27 27 27 27 28 28
128 130 127 123 118 112 106 99 95 91 86 84 82 78 72 65 60 55 52 51 47 44 42 40 38 36 33 30 30 29 28 28 26 26 25 27 27 27
127 124 122 116 111 105 98 94 90 86 81 78 74 69 64 59 54 50 47 46 44 42 40 38 36 35 32 29 29 28 26 27 26 24 24 26 27 27
123 120 113 108 103 98 94 90 85 80 75 70 67 62 57 54 50 47 44 43 41 39 37 36 34 33 30 29 28 26 25 25 25 24 23 24 25 25

GFSNE_250_spd_075.txt.gz
Wind_Speed
69 74 73 75 77 82 87 87 91 93 90 86 87 86 87 90 92 93 96 100 103 107 109 112 110 110 110 113 114 118 119 121 124 117 106 92 84 80
79 77 80 84 83 87 91 95 96 96 90 85 87 91 94 94 95 97 101 105 108 105 106 107 111 114 120 120 123 120 118 125 123 114 108 87 75 72
78 83 85 87 90 96 97 97 93 95 91 88 90 95 97 97 100 103 105 103 99 100 106 110 114 121 123 123 125 122 119 120 111 97 88 82 76 70
83 87 90 95 95 95 96 93 100 98 91 91 94 97 97 99 101 103 101 96 96 101 108 114 121 123 122 119 122 124 119 114 98 88 82 76 73 68
89 93 98 103 101 101 101 103 101 95 94 95 93 95 99 101 97 96 94 99 106 107 111 115 115 119 125 124 131 127 118 103 93 83 77 71 67 64
97 101 104 105 107 109 103 98 96 95 95 96 96 97 101 99 94 94 97 101 109 117 118 119 127 125 128 120 120 116 104 96 87 79 74 70 65 61
104 106 106 104 102 99 99 96 95 96 97 98 101 102 94 94 97 102 102 104 104 112 115 119 125 122 120 121 114 104 95 88 80 76 70 64 59 57
101 102 100 100 97 95 94 92 96 95 99 101 94 90 94 100 100 105 111 111 111 117 111 108 114 114 114 112 106 97 90 82 76 73 67 59 55 52
86 86 88 89 92 92 93 96 97 96 94 88 89 97 99 103 104 107 110 105 101 104 110 104 111 109 108 104 99 90 85 77 72 68 61 54 52 49
77 80 79 83 87 89 90 91 92 85 88 91 96 99 102 105 107 112 113 112 105 110 109 105 109 105 102 99 93 86 77 70 67 62 56 52 49 45
70 74 78 80 83 86 85 85 87 90 95 98 100 102 105 111 113 102 110 112 106 103 113 106 104 100 97 94 88 80 71 63 62 57 52 49 46 43
75 74 74 75 79 82 83 86 90 93 94 98 101 103 107 110 109 107 107 107 107 104 110 101 100 98 92 90 82 73 67 61 58 54 50 46 43 42
80 78 76 77 80 81 85 88 88 91 95 97 99 103 104 106 104 107 109 110 107 105 101 97 96 94 89 84 76 69 61 57 56 50 47 43 41 40
86 84 80 79 82 85 87 89 92 95 95 100 102 102 101 101 105 110 113 114 110 102 97 95 92 89 84 78 72 63 55 53 51 46 43 40 39 37
91 90 88 85 85 87 89 92 94 96 100 103 105 101 101 105 110 111 115 111 103 100 93 92 88 83 78 72 65 58 53 51 46 43 38 38 39 35
96 95 94 93 91 91 93 96 98 100 104 105 101 103 106 109 112 113 107 103 99 94 91 84 81 76 71 65 60 54 51 47 42 40 35 37 36 32
104 102 100 98 96 95 96 97 100 104 105 102 104 106 108 109 110 108 101 98 92 88 83 77 73 69 66 61 55 51 47 42 40 37 34 35 34 30
107 105 104 102 101 99 99 102 105 106 106 107 109 110 109 109 107 103 100 94 88 83 78 73 66 63 61 54 50 48 44 39 37 36 34 32 33 27
110 109 108 105 103 102 104 106 108 109 109 111 111 110 109 106 101 97 95 90 85 77 72 67 62 57 57 50 46 45 40 38 36 35 32 31 31 27
112 111 108 106 105 107 109 109 110 112 111 111 110 107 101 97 95 90 86 81 78 73 63 62 57 53 52 46 42 42 36 36 35 34 30 30 30 28
115 112 110 111 112 111 111 112 112 112 111 107 102 98 94 90 86 81 78 74 71 68 62 56 55 50 46 43 40 38 34 34 34 31 30 29 28 28
116 114 114 114 113 114 114 113 111 108 102 98 95 91 86 82 78 74 71 68 64 62 58 53 49 46 42 40 38 36 33 32 33 30 29 27 26 27
115 115 116 116 115 113 110 107 103 99 96 92 88 84 79 74 70 68 65 62 59 55 52 49 45 41 39 37 35 34 32 30 32 29 27 26 26 26